TimeEST,TemperatureF,Dew PointF,Humidity,Sea Level PressureIn,VisibilityMPH,Wind Direction,Wind SpeedMPH,Gust SpeedMPH,PrecipitationIn,Events,Conditions,WindDirDegrees,DateUTC
12:53 AM,43.0,34.0,71,30.18,10.0,NW,8.1,-,N/A,,Overcast,310,2013-01-18 05:53:00
1:35 AM,42.8,35.6,76,30.20,10.0,NNW,10.4,-,N/A,,Scattered Clouds,330,2013-01-18 06:35:00
1:53 AM,42.1,35.1,76,30.21,10.0,NNW,6.9,-,N/A,,Clear,340,2013-01-18 06:53:00
2:19 AM,42.8,35.6,76,30.22,10.0,NNW,4.6,-,N/A,,Mostly Cloudy,340,2013-01-18 07:19:00
2:36 AM,42.8,35.6,76,30.22,10.0,NNW,5.8,-,N/A,,Scattered Clouds,330,2013-01-18 07:36:00
2:53 AM,42.1,35.1,76,30.23,10.0,NNW,6.9,-,N/A,,Clear,340,2013-01-18 07:53:00
3:53 AM,42.1,37.0,82,30.25,10.0,North,5.8,-,N/A,,Clear,350,2013-01-18 08:53:00
4:53 AM,41.0,37.0,86,30.27,10.0,North,6.9,-,N/A,,Clear,360,2013-01-18 09:53:00
5:53 AM,43.0,37.0,80,30.30,10.0,North,4.6,-,N/A,,Clear,10,2013-01-18 10:53:00
6:53 AM,42.1,36.0,79,30.34,10.0,North,6.9,-,N/A,,Clear,10,2013-01-18 11:53:00
7:53 AM,41.0,36.0,82,30.37,10.0,North,3.5,-,N/A,,Clear,10,2013-01-18 12:53:00
8:53 AM,45.0,36.0,71,30.40,10.0,NNE,8.1,19.6,N/A,,Clear,30,2013-01-18 13:53:00
9:53 AM,48.0,34.0,58,30.43,10.0,North,11.5,18.4,N/A,,Clear,10,2013-01-18 14:53:00
10:53 AM,53.1,32.0,45,30.44,10.0,North,10.4,16.1,N/A,,Clear,10,2013-01-18 15:53:00
11:53 AM,54.0,28.9,38,30.43,10.0,North,8.1,19.6,N/A,,Clear,10,2013-01-18 16:53:00
12:53 PM,57.9,25.0,28,30.41,10.0,NNE,8.1,19.6,N/A,,Clear,30,2013-01-18 17:53:00
1:53 PM,59.0,21.0,23,30.40,10.0,NE,6.9,18.4,N/A,,Clear,50,2013-01-18 18:53:00
2:53 PM,60.1,23.0,24,30.40,10.0,NE,8.1,-,N/A,,Clear,40,2013-01-18 19:53:00
3:53 PM,59.0,21.9,24,30.41,10.0,ENE,6.9,-,N/A,,Clear,70,2013-01-18 20:53:00
4:53 PM,57.9,21.0,24,30.41,10.0,NE,4.6,-,N/A,,Clear,40,2013-01-18 21:53:00
5:53 PM,53.1,23.0,31,30.43,10.0,Calm,Calm,-,N/A,,Clear,0,2013-01-18 22:53:00
6:53 PM,43.0,27.0,53,30.45,10.0,Calm,Calm,-,N/A,,Clear,0,2013-01-18 23:53:00
7:53 PM,37.9,28.9,70,30.46,10.0,Calm,Calm,-,N/A,,Clear,0,2013-01-19 00:53:00
8:53 PM,37.0,28.0,70,30.47,10.0,Calm,Calm,-,N/A,,Clear,0,2013-01-19 01:53:00
9:53 PM,37.9,28.0,68,30.47,10.0,Calm,Calm,-,N/A,,Clear,0,2013-01-19 02:53:00
10:53 PM,34.0,28.0,79,30.47,10.0,Calm,Calm,-,N/A,,Clear,0,2013-01-19 03:53:00
11:53 PM,36.0,26.1,67,30.45,10.0,Calm,Calm,-,N/A,,Partly Cloudy,0,2013-01-19 04:53:00